| time (UTC) | temp F | wind direction | speed MPH | gust MPH | rain 1hr in | rain 24hr in | rain mn in | humidity % | barometer mb |
| 20260508005517 | 55 | 0 | 0.0 | 4.0 | 0.00 | 0.00 | 0.00 | 31 | 1009.0 |
| 20260508005018 | 56 | 247 | 1.0 | 6.0 | 0.00 | 0.00 | 0.00 | 31 | 1009.0 |
| 20260508004538 | 56 | 231 | 3.0 | 6.0 | 0.00 | 0.00 | 0.00 | 31 | 1009.0 |
| 20260508004018 | 56 | 272 | 1.0 | 4.0 | 0.00 | 0.00 | 0.00 | 29 | 1009.0 |
| 20260508003518 | 56 | 0 | 0.0 | 6.0 | 0.00 | 0.00 | 0.00 | 28 | 1008.8 |
| 20260508003034 | 56 | 278 | 2.0 | 6.0 | 0.00 | 0.00 | 0.00 | 28 | 1008.9 |
| 20260508002518 | 57 | 293 | 1.0 | 7.0 | 0.00 | 0.00 | 0.00 | 28 | 1008.9 |
| 20260508002018 | 57 | 290 | 2.0 | 10.0 | 0.00 | 0.00 | 0.00 | 28 | 1009.0 |
| 20260508001533 | 57 | 228 | 5.0 | 10.0 | 0.00 | 0.00 | 0.00 | 28 | 1009.0 |
| 20260508001017 | 57 | 252 | 2.0 | 11.0 | 0.00 | 0.00 | 0.00 | 28 | 1009.0 |
| 20260508000521 | 57 | 280 | 4.0 | 11.0 | 0.00 | 0.00 | 0.00 | 29 | 1009.1 |
| 20260508000033 | 57 | 240 | 3.0 | 7.0 | 0.00 | 0.00 | 0.00 | 28 | 1009.1 |
| 20260507235522 | 57 | 236 | 3.0 | 13.0 | 0.00 | 0.00 | 0.00 | 28 | 1009.1 |
| 20260507235018 | 57 | 235 | 5.0 | 13.0 | 0.00 | 0.00 | 0.00 | 28 | 1009.1 |
| 20260507234539 | 57 | 226 | 5.0 | 12.0 | 0.00 | 0.00 | 0.00 | 27 | 1009.2 |
| 20260507234019 | 58 | 295 | 5.0 | 12.0 | 0.00 | 0.00 | 0.00 | 26 | 1009.2 |
| 20260507233517 | 58 | 306 | 5.0 | 9.0 | 0.00 | 0.00 | 0.00 | 27 | 1009.2 |
| 20260507233036 | 58 | 359 | 3.0 | 10.0 | 0.00 | 0.00 | 0.00 | 28 | 1009.3 |
| 20260507232520 | 58 | 224 | 4.0 | 12.0 | 0.00 | 0.00 | 0.00 | 27 | 1009.3 |
| 20260507232018 | 58 | 242 | 5.0 | 12.0 | 0.00 | 0.00 | 0.00 | 26 | 1009.3 |
| 20260507231540 | 58 | 267 | 6.0 | 12.0 | 0.00 | 0.00 | 0.00 | 26 | 1009.3 |
| 20260507231018 | 58 | 294 | 4.0 | 8.0 | 0.00 | 0.00 | 0.00 | 27 | 1009.3 |
| 20260507230517 | 58 | 228 | 4.0 | 11.0 | 0.00 | 0.00 | 0.00 | 27 | 1009.3 |
| 20260507230031 | 58 | 258 | 4.0 | 13.0 | 0.00 | 0.00 | 0.00 | 26 | 1009.4 |
| 20260507225518 | 58 | 259 | 3.0 | 14.0 | 0.00 | 0.00 | 0.00 | 26 | 1009.5 |
| 20260507225019 | 58 | 313 | 7.0 | 14.0 | 0.00 | 0.00 | 0.00 | 25 | 1009.5 |
| 20260507224534 | 58 | 301 | 5.0 | 12.0 | 0.00 | 0.00 | 0.00 | 26 | 1009.5 |
| 20260507224017 | 58 | 298 | 4.0 | 10.0 | 0.00 | 0.00 | 0.00 | 28 | 1009.4 |
| 20260507223517 | 58 | 0 | 2.0 | 10.0 | 0.00 | 0.00 | 0.00 | 29 | 1009.6 |
| 20260507223032 | 58 | 275 | 3.0 | 15.0 | 0.00 | 0.00 | 0.00 | 27 | 1009.5 |
| 20260507222518 | 58 | 44 | 3.0 | 15.0 | 0.00 | 0.00 | 0.00 | 28 | 1009.5 |
| 20260507222017 | 58 | 270 | 5.0 | 15.0 | 0.00 | 0.00 | 0.00 | 26 | 1009.6 |
| 20260507221534 | 58 | 261 | 6.0 | 11.0 | 0.00 | 0.00 | 0.00 | 27 | 1009.6 |
| 20260507221019 | 58 | 276 | 4.0 | 15.0 | 0.00 | 0.00 | 0.00 | 27 | 1009.6 |
| 20260507220517 | 58 | 274 | 6.0 | 15.0 | 0.00 | 0.00 | 0.00 | 27 | 1009.7 |
| 20260507220035 | 58 | 271 | 6.0 | 15.0 | 0.00 | 0.00 | 0.00 | 27 | 1009.7 |
| 20260507215522 | 57 | 219 | 2.0 | 13.0 | 0.00 | 0.00 | 0.00 | 28 | 1009.7 |
| 20260507215018 | 57 | 269 | 4.0 | 13.0 | 0.00 | 0.00 | 0.00 | 27 | 1009.7 |
| 20260507214532 | 57 | 309 | 3.0 | 9.0 | 0.00 | 0.00 | 0.00 | 28 | 1009.7 |
| 20260507214017 | 57 | 278 | 5.0 | 9.0 | 0.00 | 0.00 | 0.00 | 27 | 1009.7 |
| 20260507213519 | 57 | 249 | 3.0 | 12.0 | 0.00 | 0.00 | 0.00 | 30 | 1009.8 |
| 20260507213044 | 57 | 219 | 4.0 | 13.0 | 0.00 | 0.00 | 0.00 | 28 | 1009.8 |
| 20260507212517 | 57 | 221 | 5.0 | 13.0 | 0.00 | 0.00 | 0.00 | 28 | 1009.9 |
| 20260507212017 | 57 | 302 | 6.0 | 13.0 | 0.00 | 0.00 | 0.00 | 29 | 1009.9 |
| 20260507211535 | 57 | 323 | 3.0 | 11.0 | 0.00 | 0.00 | 0.00 | 29 | 1009.8 |
| 20260507211016 | 57 | 342 | 4.0 | 12.0 | 0.00 | 0.00 | 0.00 | 28 | 1009.9 |
| 20260507210524 | 57 | 233 | 3.0 | 12.0 | 0.00 | 0.00 | 0.00 | 29 | 1010.0 |
| 20260507210035 | 57 | 275 | 4.0 | 9.0 | 0.00 | 0.00 | 0.00 | 32 | 1010.0 |
| 20260507205521 | 57 | 296 | 2.0 | 10.0 | 0.00 | 0.00 | 0.00 | 30 | 1010.2 |
| 20260507205018 | 57 | 229 | 4.0 | 11.0 | 0.00 | 0.00 | 0.00 | 32 | 1010.0 |
| 20260507204532 | 57 | 233 | 6.0 | 17.0 | 0.00 | 0.00 | 0.00 | 31 | 1010.2 |
| 20260507204017 | 57 | 290 | 8.0 | 17.0 | 0.00 | 0.00 | 0.00 | 31 | 1010.3 |
| 20260507203521 | 56 | 301 | 5.0 | 13.0 | 0.00 | 0.00 | 0.00 | 33 | 1010.3 |
| 20260507203035 | 56 | 306 | 0.0 | 10.0 | 0.00 | 0.00 | 0.00 | 35 | 1010.4 |
| 20260507202518 | 56 | 296 | 2.0 | 13.0 | 0.00 | 0.00 | 0.00 | 35 | 1010.4 |
| 20260507202017 | 55 | 222 | 6.0 | 13.0 | 0.00 | 0.00 | 0.00 | 35 | 1010.5 |
| 20260507201536 | 56 | 239 | 4.0 | 11.0 | 0.00 | 0.00 | 0.00 | 35 | 1010.6 |
| 20260507201019 | 56 | 265 | 7.0 | 11.0 | 0.00 | 0.00 | 0.00 | 34 | 1010.7 |
| 20260507200517 | 57 | 36 | 3.0 | 10.0 | 0.00 | 0.00 | 0.00 | 37 | 1010.7 |
| 20260507200036 | 57 | 27 | 4.0 | 10.0 | 0.00 | 0.00 | 0.00 | 32 | 1010.7 |
| 20260507195517 | 57 | 35 | 3.0 | 10.0 | 0.00 | 0.00 | 0.00 | 38 | 1010.9 |
| 20260507195015 | 57 | 213 | 4.0 | 10.0 | 0.00 | 0.00 | 0.00 | 31 | 1010.8 |
| 20260507194534 | 56 | 0 | 2.0 | 7.0 | 0.00 | 0.00 | 0.00 | 36 | 1010.9 |
| 20260507194017 | 56 | 235 | 3.0 | 8.0 | 0.00 | 0.00 | 0.00 | 29 | 1011.0 |
| 20260507193520 | 56 | 0 | 1.0 | 15.0 | 0.00 | 0.00 | 0.00 | 39 | 1010.9 |
| 20260507193032 | 56 | 118 | 2.0 | 15.0 | 0.00 | 0.00 | 0.00 | 37 | 1010.9 |
| 20260507192517 | 56 | 284 | 3.0 | 11.0 | 0.00 | 0.00 | 0.00 | 32 | 1011.0 |
| 20260507192015 | 56 | 335 | 2.0 | 12.0 | 0.00 | 0.00 | 0.00 | 33 | 1011.0 |
| 20260507191535 | 56 | 355 | 3.0 | 12.0 | 0.00 | 0.00 | 0.00 | 34 | 1011.0 |
| 20260507191017 | 56 | 324 | 2.0 | 13.0 | 0.00 | 0.00 | 0.00 | 32 | 1011.0 |
| 20260507190517 | 56 | 292 | 4.0 | 13.0 | 0.00 | 0.00 | 0.00 | 31 | 1011.1 |
| 20260507190036 | 56 | 7 | 5.0 | 13.0 | 0.00 | 0.00 | 0.00 | 33 | 1011.1 |
| 20260507185518 | 56 | 270 | 1.0 | 14.0 | 0.00 | 0.00 | 0.00 | 37 | 1011.1 |
| 20260507185017 | 56 | 61 | 3.0 | 14.0 | 0.00 | 0.00 | 0.00 | 33 | 1011.0 |
| 20260507184532 | 56 | 36 | 3.0 | 12.0 | 0.00 | 0.00 | 0.00 | 31 | 1011.1 |
| 20260507184018 | 56 | 338 | 3.0 | 12.0 | 0.00 | 0.00 | 0.00 | 36 | 1011.1 |
| 20260507183517 | 56 | 259 | 5.0 | 12.0 | 0.00 | 0.00 | 0.00 | 32 | 1011.1 |
| 20260507183041 | 56 | 350 | 1.0 | 8.0 | 0.00 | 0.00 | 0.00 | 37 | 1011.1 |
| 20260507182517 | 56 | 25 | 4.0 | 8.0 | 0.00 | 0.00 | 0.00 | 41 | 1011.1 |
| 20260507182021 | 56 | 1 | 1.0 | 6.0 | 0.00 | 0.00 | 0.00 | 36 | 1011.2 |
| 20260507181531 | 55 | 198 | 2.0 | 6.0 | 0.00 | 0.00 | 0.00 | 34 | 1011.2 |
| 20260507181019 | 55 | 63 | 4.0 | 8.0 | 0.00 | 0.00 | 0.00 | 40 | 1011.3 |
| 20260507180518 | 56 | 64 | 2.0 | 8.0 | 0.00 | 0.00 | 0.00 | 37 | 1011.2 |
| 20260507180033 | 56 | 55 | 3.0 | 10.0 | 0.00 | 0.00 | 0.00 | 34 | 1011.4 |
| 20260507175519 | 56 | 227 | 5.0 | 12.0 | 0.00 | 0.00 | 0.00 | 33 | 1011.3 |
| 20260507175017 | 56 | 292 | 6.0 | 12.0 | 0.00 | 0.00 | 0.00 | 30 | 1011.4 |
| 20260507174534 | 55 | 281 | 2.0 | 9.0 | 0.00 | 0.00 | 0.00 | 35 | 1011.5 |
| 20260507174016 | 55 | 35 | 3.0 | 9.0 | 0.00 | 0.00 | 0.00 | 34 | 1011.4 |
| 20260507173515 | 55 | 45 | 4.0 | 14.0 | 0.00 | 0.00 | 0.00 | 40 | 1011.4 |
| 20260507173043 | 55 | 17 | 7.0 | 14.0 | 0.00 | 0.00 | 0.00 | 39 | 1011.5 |
| 20260507172518 | 55 | 30 | 3.0 | 9.0 | 0.00 | 0.00 | 0.00 | 39 | 1011.6 |
| 20260507172021 | 54 | 50 | 3.0 | 11.0 | 0.00 | 0.00 | 0.00 | 35 | 1011.6 |
| 20260507171543 | 54 | 288 | 3.0 | 11.0 | 0.00 | 0.00 | 0.00 | 30 | 1011.7 |
| 20260507171021 | 54 | 329 | 5.0 | 11.0 | 0.00 | 0.00 | 0.00 | 31 | 1011.8 |
| 20260507170522 | 54 | 78 | 3.0 | 9.0 | 0.00 | 0.00 | 0.00 | 33 | 1011.8 |
| 20260507170035 | 54 | 283 | 4.0 | 9.0 | 0.00 | 0.00 | 0.00 | 31 | 1011.8 |
| 20260507165518 | 54 | 44 | 2.0 | 8.0 | 0.00 | 0.00 | 0.00 | 36 | 1011.9 |
| 20260507165017 | 54 | 341 | 2.0 | 9.0 | 0.00 | 0.00 | 0.00 | 37 | 1011.9 |
| 20260507164539 | 53 | 46 | 3.0 | 12.0 | 0.00 | 0.00 | 0.00 | 38 | 1012.1 |
| 20260507164016 | 53 | 38 | 5.0 | 12.0 | 0.00 | 0.00 | 0.00 | 38 | 1012.1 |
| 20260507163518 | 53 | 323 | 5.0 | 12.0 | 0.00 | 0.00 | 0.00 | 36 | 1012.1 |
| 20260507163036 | 53 | 25 | 2.0 | 8.0 | 0.00 | 0.00 | 0.00 | 38 | 1012.0 |
| 20260507162517 | 52 | 74 | 3.0 | 8.0 | 0.00 | 0.00 | 0.00 | 40 | 1012.2 |
| 20260507162017 | 52 | 286 | 4.0 | 10.0 | 0.00 | 0.00 | 0.00 | 37 | 1012.2 |
| 20260507161535 | 52 | 0 | 2.0 | 10.0 | 0.00 | 0.00 | 0.00 | 46 | 1012.3 |
| 20260507161018 | 52 | 71 | 7.0 | 10.0 | 0.00 | 0.00 | 0.00 | 42 | 1012.2 |
| 20260507160517 | 52 | 70 | 4.0 | 10.0 | 0.00 | 0.00 | 0.00 | 44 | 1012.3 |
| 20260507160032 | 52 | 65 | 5.0 | 10.0 | 0.00 | 0.00 | 0.00 | 43 | 1012.3 |
| 20260507155516 | 53 | 66 | 5.0 | 10.0 | 0.00 | 0.00 | 0.00 | 45 | 1012.4 |
| 20260507155019 | 52 | 67 | 5.0 | 10.0 | 0.00 | 0.00 | 0.00 | 50 | 1012.4 |
| 20260507154535 | 51 | 67 | 5.0 | 10.0 | 0.00 | 0.00 | 0.00 | 52 | 1012.4 |
| 20260507154017 | 50 | 66 | 3.0 | 7.0 | 0.00 | 0.00 | 0.00 | 50 | 1012.4 |
| 20260507153537 | 50 | 64 | 2.0 | 7.0 | 0.00 | 0.00 | 0.00 | 46 | 1012.5 |
| 20260507153032 | 50 | 72 | 3.0 | 7.0 | 0.00 | 0.00 | 0.00 | 44 | 1012.4 |
| 20260507152518 | 50 | 67 | 3.0 | 7.0 | 0.00 | 0.00 | 0.00 | 43 | 1012.5 |
| 20260507152018 | 50 | 72 | 3.0 | 8.0 | 0.00 | 0.00 | 0.00 | 47 | 1012.4 |
| 20260507151531 | 51 | 64 | 3.0 | 8.0 | 0.00 | 0.00 | 0.00 | 50 | 1012.6 |
| 20260507151018 | 50 | 90 | 4.0 | 9.0 | 0.00 | 0.00 | 0.00 | 51 | 1012.5 |
| 20260507150521 | 50 | 80 | 4.0 | 9.0 | 0.00 | 0.00 | 0.00 | 54 | 1012.5 |
| 20260507150037 | 49 | 65 | 5.0 | 9.0 | 0.00 | 0.00 | 0.00 | 56 | 1012.5 |
| 20260507145519 | 49 | 74 | 3.0 | 7.0 | 0.00 | 0.00 | 0.00 | 52 | 1012.6 |
| 20260507145018 | 48 | 69 | 4.0 | 7.0 | 0.00 | 0.00 | 0.00 | 55 | 1012.5 |
| 20260507144557 | 48 | 70 | 3.0 | 8.0 | 0.00 | 0.00 | 0.00 | 55 | 1012.5 |
| 20260507144018 | 47 | 77 | 3.0 | 8.0 | 0.00 | 0.00 | 0.00 | 57 | 1012.6 |
| 20260507143518 | 47 | 74 | 4.0 | 8.0 | 0.00 | 0.00 | 0.00 | 57 | 1012.6 |
| 20260507143031 | 47 | 84 | 3.0 | 6.0 | 0.00 | 0.00 | 0.00 | 62 | 1012.6 |
| 20260507142518 | 47 | 71 | 2.0 | 5.0 | 0.00 | 0.00 | 0.00 | 62 | 1012.7 |
| 20260507142022 | 46 | 68 | 3.0 | 5.0 | 0.00 | 0.00 | 0.00 | 62 | 1012.7 |
| 20260507141535 | 46 | 67 | 3.0 | 5.0 | 0.00 | 0.00 | 0.00 | 62 | 1012.8 |
| 20260507141018 | 46 | 68 | 2.0 | 5.0 | 0.00 | 0.00 | 0.00 | 62 | 1012.9 |
| 20260507140518 | 45 | 64 | 2.0 | 5.0 | 0.00 | 0.00 | 0.00 | 61 | 1012.8 |
| 20260507140036 | 45 | 63 | 2.0 | 5.0 | 0.00 | 0.00 | 0.00 | 62 | 1012.9 |
| 20260507135518 | 45 | 60 | 2.0 | 6.0 | 0.00 | 0.00 | 0.00 | 64 | 1013.0 |
| 20260507135018 | 45 | 59 | 2.0 | 6.0 | 0.00 | 0.00 | 0.00 | 65 | 1013.0 |
| 20260507134537 | 45 | 56 | 3.0 | 5.0 | 0.00 | 0.00 | 0.00 | 67 | 1013.0 |
| 20260507134018 | 45 | 46 | 2.0 | 4.0 | 0.00 | 0.00 | 0.00 | 67 | 1013.1 |
| 20260507133518 | 45 | 0 | 2.0 | 4.0 | 0.00 | 0.00 | 0.00 | 64 | 1013.0 |
| 20260507133037 | 45 | 45 | 2.0 | 4.0 | 0.00 | 0.00 | 0.00 | 64 | 1013.1 |
| 20260507132518 | 44 | 43 | 2.0 | 5.0 | 0.00 | 0.00 | 0.00 | 68 | 1013.1 |
| 20260507132016 | 44 | 42 | 3.0 | 5.0 | 0.00 | 0.00 | 0.00 | 67 | 1013.1 |
| 20260507131534 | 43 | 359 | 0.0 | 4.0 | 0.00 | 0.00 | 0.00 | 70 | 1013.1 |
| 20260507131018 | 42 | 0 | 1.0 | 3.0 | 0.00 | 0.00 | 0.00 | 70 | 1013.2 |
| 20260507130518 | 41 | 306 | 2.0 | 3.0 | 0.00 | 0.00 | 0.00 | 70 | 1013.2 |
| 20260507130032 | 40 | 276 | 0.0 | 2.0 | 0.00 | 0.00 | 0.00 | 69 | 1013.3 |
| 20260507125518 | 39 | 0 | 0.0 | 0.0 | 0.00 | 0.00 | 0.00 | 70 | 1013.3 |
| 20260507125017 | 38 | 0 | 0.0 | 0.0 | 0.00 | 0.00 | 0.00 | 73 | 1013.4 |
| 20260507124534 | 38 | 0 | 0.0 | 0.0 | 0.00 | 0.00 | 0.00 | 76 | 1013.4 |
| 20260507124024 | 37 | 0 | 0.0 | 0.0 | 0.00 | 0.00 | 0.00 | 78 | 1013.4 |
| 20260507123518 | 36 | 0 | 0.0 | 0.0 | 0.00 | 0.00 | 0.00 | 81 | 1013.4 |
| 20260507123037 | 35 | 0 | 0.0 | 0.0 | 0.00 | 0.00 | 0.00 | 83 | 1013.5 |
| 20260507122518 | 35 | 0 | 0.0 | 0.0 | 0.00 | 0.00 | 0.00 | 84 | 1013.4 |
| 20260507122018 | 34 | 0 | 0.0 | 0.0 | 0.00 | 0.00 | 0.00 | 84 | 1013.3 |
| 20260507121532 | 34 | 0 | 0.0 | 0.0 | 0.00 | 0.00 | 0.00 | 84 | 1013.3 |
| 20260507121018 | 33 | 0 | 0.0 | 0.0 | 0.00 | 0.00 | 0.00 | 84 | 1013.3 |
| 20260507120517 | 33 | 0 | 0.0 | 0.0 | 0.00 | 0.00 | 0.00 | 84 | 1013.3 |
| 20260507120034 | 32 | 0 | 0.0 | 0.0 | 0.00 | 0.00 | 0.00 | 84 | 1013.2 |
| 20260507115519 | 32 | 0 | 0.0 | 0.0 | 0.00 | 0.00 | 0.00 | 84 | 1013.2 |
| 20260507115019 | 31 | 0 | 0.0 | 0.0 | 0.00 | 0.00 | 0.00 | 85 | 1013.1 |
| 20260507114532 | 31 | 0 | 0.0 | 0.0 | 0.00 | 0.00 | 0.00 | 85 | 1013.1 |
| 20260507114017 | 31 | 0 | 0.0 | 0.0 | 0.00 | 0.00 | 0.00 | 85 | 1013.1 |
| 20260507113518 | 31 | 0 | 0.0 | 0.0 | 0.00 | 0.00 | 0.00 | 85 | 1013.0 |
| 20260507113035 | 31 | 0 | 0.0 | 0.0 | 0.00 | 0.00 | 0.00 | 85 | 1013.1 |
| 20260507112520 | 31 | 0 | 0.0 | 0.0 | 0.00 | 0.00 | 0.00 | 86 | 1013.0 |
| 20260507112017 | 31 | 0 | 0.0 | 0.0 | 0.00 | 0.00 | 0.00 | 85 | 1013.0 |
| 20260507111542 | 31 | 0 | 0.0 | 0.0 | 0.00 | 0.00 | 0.00 | 85 | 1013.1 |
| 20260507111017 | 31 | 0 | 0.0 | 0.0 | 0.00 | 0.00 | 0.00 | 86 | 1013.0 |
| 20260507110518 | 31 | 0 | 0.0 | 0.0 | 0.00 | 0.00 | 0.00 | 86 | 1013.1 |
| 20260507110033 | 30 | 0 | 0.0 | 0.0 | 0.00 | 0.00 | 0.00 | 85 | 1013.1 |
| 20260507105517 | 30 | 0 | 0.0 | 0.0 | 0.00 | 0.00 | 0.00 | 85 | 1013.0 |
| 20260507105017 | 30 | 0 | 0.0 | 0.0 | 0.00 | 0.00 | 0.00 | 85 | 1013.1 |
| 20260507104533 | 30 | 0 | 0.0 | 0.0 | 0.00 | 0.00 | 0.00 | 85 | 1013.1 |
| 20260507104019 | 30 | 0 | 0.0 | 0.0 | 0.00 | 0.00 | 0.00 | 85 | 1013.1 |
| 20260507103518 | 30 | 0 | 0.0 | 0.0 | 0.00 | 0.00 | 0.00 | 85 | 1013.0 |
| 20260507103118 | 30 | 0 | 0.0 | 0.0 | 0.00 | 0.00 | 0.00 | 85 | 1013.0 |
| 20260507102517 | 29 | 0 | 0.0 | 0.0 | 0.00 | 0.00 | 0.00 | 85 | 1013.2 |
| 20260507102016 | 29 | 0 | 0.0 | 0.0 | 0.00 | 0.00 | 0.00 | 85 | 1013.1 |
| 20260507101544 | 29 | 0 | 0.0 | 0.0 | 0.00 | 0.00 | 0.00 | 84 | 1013.1 |
| 20260507101016 | 29 | 0 | 0.0 | 0.0 | 0.00 | 0.00 | 0.00 | 84 | 1013.2 |
| 20260507100516 | 29 | 0 | 0.0 | 0.0 | 0.00 | 0.00 | 0.00 | 84 | 1013.1 |
| 20260507100041 | 29 | 0 | 0.0 | 0.0 | 0.00 | 0.00 | 0.00 | 84 | 1013.2 |
| 20260507095518 | 30 | 0 | 0.0 | 0.0 | 0.00 | 0.00 | 0.00 | 84 | 1013.2 |
| 20260507095016 | 30 | 0 | 0.0 | 0.0 | 0.00 | 0.00 | 0.00 | 84 | 1013.2 |
| 20260507094541 | 30 | 0 | 0.0 | 0.0 | 0.00 | 0.00 | 0.00 | 83 | 1013.3 |
| 20260507094016 | 30 | 0 | 0.0 | 0.0 | 0.00 | 0.00 | 0.00 | 83 | 1013.2 |
| 20260507093517 | 30 | 0 | 0.0 | 0.0 | 0.00 | 0.00 | 0.00 | 83 | 1013.3 |
| 20260507093036 | 30 | 0 | 0.0 | 0.0 | 0.00 | 0.00 | 0.00 | 83 | 1013.2 |
| 20260507092518 | 30 | 0 | 0.0 | 0.0 | 0.00 | 0.00 | 0.00 | 83 | 1013.2 |
| 20260507092017 | 30 | 0 | 0.0 | 0.0 | 0.00 | 0.00 | 0.00 | 83 | 1013.3 |
| 20260507091532 | 30 | 0 | 0.0 | 0.0 | 0.00 | 0.00 | 0.00 | 83 | 1013.3 |
| 20260507091023 | 30 | 0 | 0.0 | 0.0 | 0.00 | 0.00 | 0.00 | 83 | 1013.2 |
| 20260507090521 | 30 | 0 | 0.0 | 0.0 | 0.00 | 0.00 | 0.00 | 83 | 1013.3 |
| 20260507090035 | 30 | 0 | 0.0 | 0.0 | 0.00 | 0.00 | 0.00 | 82 | 1013.2 |
| 20260507085517 | 30 | 0 | 0.0 | 0.0 | 0.00 | 0.00 | 0.00 | 82 | 1013.3 |
| 20260507085017 | 30 | 0 | 0.0 | 0.0 | 0.00 | 0.00 | 0.00 | 82 | 1013.3 |
| 20260507084537 | 31 | 0 | 0.0 | 0.0 | 0.00 | 0.00 | 0.00 | 82 | 1013.2 |
| 20260507084019 | 31 | 0 | 0.0 | 0.0 | 0.00 | 0.00 | 0.00 | 81 | 1013.3 |
| 20260507083519 | 31 | 0 | 0.0 | 0.0 | 0.00 | 0.00 | 0.00 | 81 | 1013.4 |
| 20260507083035 | 31 | 0 | 0.0 | 0.0 | 0.00 | 0.00 | 0.00 | 81 | 1013.3 |
| 20260507082517 | 31 | 0 | 0.0 | 0.0 | 0.00 | 0.00 | 0.00 | 80 | 1013.4 |
| 20260507082018 | 31 | 0 | 0.0 | 0.0 | 0.00 | 0.00 | 0.00 | 80 | 1013.3 |
| 20260507081532 | 32 | 0 | 0.0 | 0.0 | 0.00 | 0.00 | 0.00 | 80 | 1013.3 |
| 20260507081018 | 32 | 0 | 0.0 | 0.0 | 0.00 | 0.00 | 0.00 | 80 | 1013.3 |
| 20260507080518 | 32 | 0 | 0.0 | 0.0 | 0.00 | 0.00 | 0.00 | 80 | 1013.3 |
| 20260507080037 | 32 | 0 | 0.0 | 0.0 | 0.00 | 0.00 | 0.00 | 79 | 1013.4 |
| 20260507075517 | 32 | 0 | 0.0 | 0.0 | 0.00 | 0.00 | 0.00 | 79 | 1013.3 |
| 20260507075020 | 32 | 0 | 0.0 | 0.0 | 0.00 | 0.00 | 0.00 | 78 | 1013.4 |
| 20260507074534 | 33 | 0 | 0.0 | 0.0 | 0.00 | 0.00 | 0.00 | 78 | 1013.3 |
| 20260507074017 | 33 | 0 | 0.0 | 0.0 | 0.00 | 0.00 | 0.00 | 78 | 1013.4 |
| 20260507073517 | 33 | 0 | 0.0 | 0.0 | 0.00 | 0.00 | 0.00 | 78 | 1013.4 |
| 20260507073035 | 33 | 0 | 0.0 | 0.0 | 0.00 | 0.00 | 0.00 | 77 | 1013.5 |
| 20260507072517 | 33 | 0 | 0.0 | 0.0 | 0.00 | 0.00 | 0.00 | 77 | 1013.6 |
| 20260507072016 | 34 | 0 | 0.0 | 0.0 | 0.00 | 0.00 | 0.00 | 76 | 1013.6 |
| 20260507071535 | 34 | 0 | 0.0 | 0.0 | 0.00 | 0.00 | 0.00 | 76 | 1013.6 |
| 20260507071018 | 34 | 0 | 0.0 | 0.0 | 0.00 | 0.00 | 0.00 | 76 | 1013.6 |
| 20260507070518 | 34 | 0 | 0.0 | 0.0 | 0.00 | 0.00 | 0.00 | 75 | 1013.7 |
| 20260507070035 | 35 | 0 | 0.0 | 0.0 | 0.00 | 0.00 | 0.00 | 74 | 1013.7 |
| 20260507065517 | 35 | 0 | 0.0 | 0.0 | 0.00 | 0.00 | 0.00 | 74 | 1013.7 |
| 20260507065017 | 35 | 0 | 0.0 | 0.0 | 0.00 | 0.00 | 0.00 | 73 | 1013.8 |
| 20260507064538 | 35 | 0 | 0.0 | 0.0 | 0.00 | 0.00 | 0.00 | 73 | 1013.9 |
| 20260507064017 | 36 | 0 | 0.0 | 0.0 | 0.00 | 0.00 | 0.00 | 73 | 1013.8 |
| 20260507063517 | 36 | 0 | 0.0 | 0.0 | 0.00 | 0.00 | 0.00 | 72 | 1013.9 |
| 20260507063044 | 36 | 0 | 0.0 | 0.0 | 0.00 | 0.00 | 0.00 | 72 | 1014.0 |
| 20260507062517 | 36 | 0 | 0.0 | 2.0 | 0.00 | 0.00 | 0.00 | 73 | 1014.0 |
| 20260507062017 | 36 | 0 | 0.0 | 3.0 | 0.00 | 0.00 | 0.00 | 73 | 1014.0 |
| 20260507061534 | 36 | 276 | 1.0 | 3.0 | 0.00 | 0.00 | 0.00 | 73 | 1014.1 |
| 20260507061018 | 36 | 276 | 1.0 | 3.0 | 0.00 | 0.00 | 0.00 | 74 | 1014.1 |
| 20260507060517 | 36 | 276 | 2.0 | 3.0 | 0.00 | 0.00 | 0.00 | 74 | 1014.1 |
| 20260507060046 | 36 | 276 | 1.0 | 3.0 | 0.00 | 0.00 | 0.00 | 74 | 1014.1 |
| 20260507055520 | 36 | 276 | 1.0 | 3.0 | 0.00 | 0.00 | 0.00 | 73 | 1014.1 |
| 20260507055017 | 36 | 0 | 0.0 | 0.0 | 0.00 | 0.00 | 0.00 | 72 | 1014.1 |
| 20260507054544 | 36 | 0 | 0.0 | 2.0 | 0.00 | 0.00 | 0.00 | 73 | 1014.2 |
| 20260507054018 | 36 | 0 | 0.0 | 3.0 | 0.00 | 0.00 | 0.00 | 73 | 1014.1 |
| 20260507053519 | 36 | 0 | 0.0 | 3.0 | 0.00 | 0.00 | 0.00 | 73 | 1014.1 |
| 20260507053036 | 36 | 0 | 0.0 | 0.0 | 0.00 | 0.00 | 0.00 | 73 | 1014.2 |
| 20260507052520 | 36 | 0 | 0.0 | 2.0 | 0.00 | 0.00 | 0.00 | 73 | 1014.1 |
| 20260507052018 | 36 | 0 | 0.0 | 3.0 | 0.00 | 0.00 | 0.00 | 73 | 1014.1 |
| 20260507051535 | 36 | 0 | 0.0 | 3.0 | 0.00 | 0.00 | 0.00 | 73 | 1014.1 |
| 20260507051017 | 36 | 276 | 1.0 | 3.0 | 0.00 | 0.00 | 0.00 | 73 | 1014.1 |
| 20260507050517 | 36 | 276 | 1.0 | 3.0 | 0.00 | 0.00 | 0.00 | 73 | 1014.2 |
| 20260507050038 | 36 | 0 | 0.0 | 2.0 | 0.00 | 0.00 | 0.00 | 73 | 1014.2 |
| 20260507045517 | 36 | 0 | 0.0 | 0.0 | 0.00 | 0.00 | 0.00 | 73 | 1014.2 |
| 20260507045017 | 36 | 0 | 0.0 | 0.0 | 0.00 | 0.00 | 0.00 | 74 | 1014.2 |
| 20260507044548 | 36 | 0 | 0.0 | 2.0 | 0.00 | 0.00 | 0.00 | 73 | 1014.3 |
| 20260507044017 | 36 | 0 | 0.0 | 3.0 | 0.00 | 0.00 | 0.00 | 74 | 1014.4 |
| 20260507043518 | 36 | 276 | 1.0 | 3.0 | 0.00 | 0.00 | 0.00 | 74 | 1014.2 |
| 20260507043032 | 36 | 276 | 1.0 | 3.0 | 0.00 | 0.00 | 0.00 | 73 | 1014.3 |
| 20260507042517 | 36 | 0 | 0.0 | 0.0 | 0.00 | 0.00 | 0.00 | 73 | 1014.3 |
| 20260507042018 | 35 | 0 | 0.0 | 0.0 | 0.00 | 0.00 | 0.00 | 73 | 1014.4 |
| 20260507041532 | 35 | 0 | 0.0 | 0.0 | 0.00 | 0.00 | 0.00 | 73 | 1014.4 |
| 20260507041018 | 35 | 0 | 0.0 | 0.0 | 0.00 | 0.00 | 0.00 | 73 | 1014.4 |
| 20260507040517 | 35 | 0 | 0.0 | 0.0 | 0.00 | 0.00 | 0.00 | 73 | 1014.4 |
| 20260507040035 | 35 | 0 | 0.0 | 0.0 | 0.00 | 0.00 | 0.00 | 72 | 1014.4 |
| 20260507035517 | 35 | 0 | 0.0 | 0.0 | 0.00 | 0.00 | 0.00 | 72 | 1014.4 |
| 20260507035019 | 36 | 0 | 0.0 | 0.0 | 0.00 | 0.00 | 0.00 | 71 | 1014.5 |
| 20260507034538 | 36 | 0 | 0.0 | 0.0 | 0.00 | 0.00 | 0.00 | 71 | 1014.5 |
| 20260507034017 | 36 | 0 | 0.0 | 0.0 | 0.00 | 0.00 | 0.00 | 70 | 1014.5 |
| 20260507033517 | 36 | 0 | 0.0 | 0.0 | 0.00 | 0.00 | 0.00 | 69 | 1014.4 |
| 20260507033035 | 36 | 0 | 0.0 | 3.0 | 0.00 | 0.00 | 0.00 | 68 | 1014.6 |
| 20260507032518 | 37 | 0 | 0.0 | 3.0 | 0.00 | 0.00 | 0.00 | 68 | 1014.6 |
| 20260507032017 | 37 | 276 | 1.0 | 3.0 | 0.00 | 0.00 | 0.00 | 68 | 1014.6 |
| 20260507031534 | 37 | 0 | 0.0 | 0.0 | 0.00 | 0.00 | 0.00 | 67 | 1014.7 |
| 20260507031018 | 38 | 0 | 0.0 | 0.0 | 0.00 | 0.00 | 0.00 | 66 | 1014.7 |
| 20260507030520 | 38 | 0 | 0.0 | 0.0 | 0.00 | 0.00 | 0.00 | 66 | 1014.8 |
| 20260507030032 | 39 | 0 | 0.0 | 0.0 | 0.00 | 0.00 | 0.00 | 65 | 1014.7 |
| 20260507025517 | 39 | 0 | 0.0 | 0.0 | 0.00 | 0.00 | 0.00 | 64 | 1014.7 |
| 20260507025017 | 40 | 0 | 0.0 | 0.0 | 0.00 | 0.00 | 0.00 | 63 | 1014.7 |
| 20260507024541 | 40 | 0 | 0.0 | 0.0 | 0.00 | 0.00 | 0.00 | 61 | 1014.7 |
| 20260507024018 | 41 | 0 | 0.0 | 0.0 | 0.00 | 0.00 | 0.00 | 60 | 1014.7 |
| 20260507023519 | 41 | 0 | 0.0 | 0.0 | 0.00 | 0.00 | 0.00 | 60 | 1014.7 |
| 20260507023033 | 42 | 0 | 0.0 | 0.0 | 0.00 | 0.00 | 0.00 | 58 | 1014.8 |
| 20260507022520 | 42 | 0 | 0.0 | 0.0 | 0.00 | 0.00 | 0.00 | 56 | 1014.7 |
| 20260507022017 | 42 | 0 | 0.0 | 0.0 | 0.00 | 0.00 | 0.00 | 55 | 1014.7 |
| 20260507021532 | 43 | 0 | 0.0 | 0.0 | 0.00 | 0.00 | 0.00 | 54 | 1014.8 |
| 20260507021020 | 43 | 0 | 0.0 | 0.0 | 0.00 | 0.00 | 0.00 | 53 | 1014.8 |
| 20260507020518 | 44 | 0 | 0.0 | 0.0 | 0.00 | 0.00 | 0.00 | 53 | 1014.7 |
| 20260507020043 | 44 | 0 | 0.0 | 0.0 | 0.00 | 0.00 | 0.00 | 53 | 1014.8 |
| 20260507015522 | 44 | 0 | 0.0 | 0.0 | 0.00 | 0.00 | 0.00 | 53 | 1014.8 |
| 20260507015018 | 44 | 0 | 0.0 | 0.0 | 0.00 | 0.00 | 0.00 | 53 | 1014.8 |
| 20260507014537 | 44 | 0 | 0.0 | 3.0 | 0.00 | 0.00 | 0.00 | 53 | 1014.7 |
| 20260507014021 | 44 | 0 | 0.0 | 3.0 | 0.00 | 0.00 | 0.00 | 51 | 1014.9 |
| 20260507013517 | 44 | 0 | 0.0 | 0.0 | 0.00 | 0.00 | 0.00 | 51 | 1014.9 |
| 20260507013032 | 45 | 0 | 0.0 | 0.0 | 0.00 | 0.00 | 0.00 | 52 | 1015.0 |
| 20260507012515 | 45 | 0 | 0.0 | 0.0 | 0.00 | 0.00 | 0.00 | 52 | 1014.9 |
| 20260507012015 | 45 | 0 | 0.0 | 3.0 | 0.00 | 0.00 | 0.00 | 51 | 1014.9 |
| 20260507011535 | 45 | 0 | 0.0 | 3.0 | 0.00 | 0.00 | 0.00 | 50 | 1014.9 |
| 20260507011020 | 45 | 277 | 0.0 | 3.0 | 0.00 | 0.00 | 0.00 | 50 | 1014.9 |
| 20260507010519 | 45 | 0 | 0.0 | 4.0 | 0.00 | 0.00 | 0.00 | 50 | 1015.0 |
| 20260507010040 | 45 | 277 | 1.0 | 4.0 | 0.00 | 0.00 | 0.00 | 48 | 1014.9 |